Location: Alsip
(41.6689°N, 87.7387°W)
Time: 14:10:06
(UTC+00:00)

Lacrosse 5 - Pass Details

Date: 14 July 2020
Orbit: 717 x 720 km, 57.0° (Epoch: 02 August)

Event Time Altitude Azimuth Distance (km) Brightness Sun altitude
Exits shadow 05:08:06 33° 79° (E) 1,186 2.9 -25.7°
Drops below altitude 10° 05:11:14 10° 56° (NE) 2,204 4.6 -25.8°
Sets 05:13:41 0° 50° (NE) 3,128 5.5 -25.9°
